Regional Weather Roundup
Issued by NWS

Home | Current Version | Previous Version | Graphics & Text | Print | Product List | Glossary Off
Versions: 1 2 3 4 5 6 7 8 9 10 11 12 13 14 15 16 17 18 19 20 21 22 23 24 25 26 27 28 29 30 31 32 33 34 35 36 37 38 39 40 41 42 43 44 45 46 47 48 49 50

000
ASUS44 KFWD 250615
RWRTX
NORTH TEXAS HOURLY WEATHER ROUNDUP
NATIONAL WEATHER SERVICE FORT WORTH TX
100 AM CDT SAT APR 25 2015

NOTE: "FAIR" INDICATES FEW OR NO CLOUDS BELOW 12,000 FEET WITH NO
SIGNIFICANT WEATHER AND/OR OBSTRUCTIONS TO VISIBILITY.

TXZ118-119-250700-
DALLAS/FORT WORTH METROPLEX

CITY           SKY/WX    TMP DP  RH WIND       PRES   REMARKS
DFW AIRPORT    MOCLDY    60  60 100 S6        29.68S
6HR MIN TEMP:  59; 6HR MAX TEMP:  66; 6HR PCP:  0.60;

DALLAS LOVE    MOCLDY    64  62  93 S8        29.69F
6HR MIN TEMP:  62; 6HR MAX TEMP:  67; 6HR PCP:  0.75;

FTW MEACHAM    FAIR      63  61  93 CALM      29.68S
6HR MIN TEMP:  61; 6HR MAX TEMP:  66; 6HR PCP: TRACE;

DAL-EXECUTIVE  FAIR      63  62  97 SW5       29.68F
6HR MIN TEMP:  61; 6HR MAX TEMP:  69; 6HR PCP:  0.76;

FTW-ALLIANCE   MOCLDY    61  60  97 VRB5      29.68S
6HR MIN TEMP:  59; 6HR MAX TEMP:  65; 6HR PCP: TRACE;

FTW-NAS-JRB      N/A    N/A N/A N/A MISG        N/A
FTW-SPINKS     FAIR      61  60  97 S3        29.71S
ARLINGTON      FAIR      64  60  87 S5        29.69F
6HR MIN TEMP:  60; 6HR MAX TEMP:  65; 6HR PCP:  0.01;

GRAND PRAIRIE  FAIR      63  63 100 SW5       29.71S
6HR MIN TEMP:  62; 6HR MAX TEMP:  64; 6HR PCP:  0.01;

ADDISON        FAIR     N/A N/A N/A S5        29.71S
                                      6HR PCP:  0.72;

MESQUITE       FAIR      62  62  99 S5        29.69F
6HR MIN TEMP:  62; 6HR MAX TEMP:  68; 6HR PCP:  0.57;

LANCASTER      FAIR      63  61  94 CALM      29.70F
6HR MIN TEMP:  61; 6HR MAX TEMP:  71; 6HR PCP:  0.53;

$$

TXZ091>094-102>105-117-120-121-131>134-250700-
NORTH CENTRAL TEXAS

CITY           SKY/WX    TMP DP  RH WIND       PRES   REMARKS
SHRMAN/DENISON CLOUDY    64  64 100 S9        29.68F
6HR MIN TEMP:  64; 6HR MAX TEMP:  65; 6HR PCP:  0.12;

GAINESVILLE    FOG       61  61  99 S9        29.70S VSB 1
6HR MIN TEMP:  61; 6HR MAX TEMP:  63;

BOWIE          FOG       60  60  99 S5        29.68R VSB 1/4
6HR MIN TEMP:  60; 6HR MAX TEMP:  63;

BRIDGEPORT     FAIR      64  63  96 SW8       29.70R
6HR MIN TEMP:  63; 6HR MAX TEMP:  64;

DECATUR        FAIR      60  60 100 S6        29.70R
6HR MIN TEMP:  60; 6HR MAX TEMP:  63;

DENTON         FAIR      60  59  96 SE7       29.68S FOG
6HR MIN TEMP:  59; 6HR MAX TEMP:  63; 6HR PCP: TRACE;

MCKINNEY       FAIR      62  62 100 S6        29.69S
6HR MIN TEMP:  62; 6HR MAX TEMP:  64; 6HR PCP:  0.26;

GREENVILLE     FAIR      63  61  94 S5        29.69F
ROCKWALL       FAIR      63  63 100 S7        29.69S
6HR MIN TEMP:  63; 6HR MAX TEMP:  65; 6HR PCP:  0.79;

TERRELL        FAIR      65  63  93 S5        29.70F
6HR MIN TEMP:  64; 6HR MAX TEMP:  74; 6HR PCP:  0.81;

WAXAHACHIE     FAIR      63  63 100 CALM      29.71F
6HR MIN TEMP:  62; 6HR MAX TEMP:  65; 6HR PCP:  0.69;

CLEBURNE       FAIR      64  64 100 CALM      29.73S
GRANBURY       FAIR      68  61  80 SW9       29.72S
6HR MIN TEMP:  65; 6HR MAX TEMP:  68;

$$

TXZ083>090-098>101-113>116-127>130-139>142-154-155-250700-
WESTERN NORTH TEXAS

CITY           SKY/WX    TMP DP  RH WIND       PRES   REMARKS
WICHITA FALLS  FAIR      62  60  93 SW9       29.64F
6HR MIN TEMP:  62; 6HR MAX TEMP:  68;

WF-KICKAPOO    FAIR      66  60  81 SW5       29.67S
6HR MIN TEMP:  65; 6HR MAX TEMP:  70;

VERNON         FAIR      60  44  55 SW9       29.66S
6HR MIN TEMP:  56; 6HR MAX TEMP:  77;

ABILENE        FAIR      64  53  67 SW9       29.76S
6HR MIN TEMP:  63; 6HR MAX TEMP:  76;

ABILENE-DYESS  FAIR      60  43  51 SW10      29.75R
6HR MIN TEMP:  55; 6HR MAX TEMP:  76;

BRECKENRIDGE   FAIR      66  57  74 SW9       29.72R
6HR MIN TEMP:  65; 6HR MAX TEMP:  77;

GRAHAM         FAIR      60  60  99 CALM      29.69R
6HR MIN TEMP:  60; 6HR MAX TEMP:  70;

MINERAL WELLS  FAIR      62  60  93 CALM      29.70R
6HR MIN TEMP:  61; 6HR MAX TEMP:  66;

STEPHENVILLE   FAIR      65  59  83 SW5       29.76F
6HR MIN TEMP:  62; 6HR MAX TEMP:  65;

COMANCHE       FAIR      66  61  84 SW9       29.75F
6HR MIN TEMP:  64; 6HR MAX TEMP:  66;

BROWNWOOD      FAIR      57  57 100 SE5       29.77F FOG
COLEMAN        FAIR      62  60  94 SW5       29.78S
6HR MIN TEMP:  62; 6HR MAX TEMP:  69;

BRADY          CLEAR     63  63 100 SW6       29.81R
$$

TXZ143>147-156>162-174-175-250700-
CENTRAL TEXAS

CITY           SKY/WX    TMP DP  RH WIND       PRES   REMARKS
WACO           FAIR      66  63  90 CALM      29.71S
6HR MIN TEMP:  66; 6HR MAX TEMP:  79; 6HR PCP:  0.13;

WACO-MCGREGOR  FAIR      66  59  77 S5        29.73R
6HR MIN TEMP:  66; 6HR MAX TEMP:  81; 6HR PCP:  0.01;

HILLSBORO      FAIR      64  60  87 S5        29.71F
6HR MIN TEMP:  64; 6HR MAX TEMP:  78; 6HR PCP:  0.52;

CORSICANA      FAIR      66  63  90 S6        29.71F
6HR MIN TEMP:  66; 6HR MAX TEMP:  79; 6HR PCP:  0.49;

MEXIA          FAIR      68  65  89 SE13      29.71S
6HR MIN TEMP:  66; 6HR MAX TEMP:  79; 6HR PCP:  0.22;

HEARNE         FAIR      75  72  91 E3        29.72F
6HR MIN TEMP:  74; 6HR MAX TEMP:  81;

CAMERON        FAIR      74  72  94 S3        29.73S
6HR MIN TEMP:  74; 6HR MAX TEMP:  82;

TEMPLE         FAIR      70  63  78 S10       29.73R
6HR MIN TEMP:  68; 6HR MAX TEMP:  81; 6HR PCP:  0.12;

KILLEEN        FAIR      72  67  83 SW8       29.74R
6HR MIN TEMP:  71; 6HR MAX TEMP:  80; 6HR PCP: TRACE;

KILLEEN-SKYLRK FAIR      68  61  77 S6        29.75R
6HR MIN TEMP:  68; 6HR MAX TEMP:  82;

FORT HOOD      MOCLDY    69  65  88 S6        29.73R
6HR MIN TEMP:  68; 6HR MAX TEMP:  81; 6HR PCP:  0.04;

GATESVILLE     FAIR      66  64  94 N3        29.75R
LAMPASAS       FAIR      71  68  91 W5        29.75R
6HR MIN TEMP:  68; 6HR MAX TEMP:  79;

$$

TXZ095>097-106>112-122>126-135>138-148>153-164>167-250700-
EAST TEXAS

CITY           SKY/WX    TMP DP  RH WIND       PRES   REMARKS
PARIS          CLOUDY    63  57  82 MISG      29.70F
6HR MIN TEMP:  61; 6HR MAX TEMP:  63; 6HR PCP:  0.23;

SULPHUR SPRNGS FAIR      64  64 100 S8        29.74F
6HR MIN TEMP:  63; 6HR MAX TEMP:  64; 6HR PCP:  0.18;

MOUNT PLEASANT CLOUDY   N/A N/A N/A SE6       29.73F VSB 1
GILMER         FAIR      65  64  97 S8        29.73F
6HR MIN TEMP:  64; 6HR MAX TEMP:  73; 6HR PCP:  0.37;

TYLER          FAIR      65  63  93 S9        29.73F
6HR MIN TEMP:  65; 6HR MAX TEMP:  76; 6HR PCP:  1.34;

LONGVIEW       FAIR      67  64  90 SW6       29.72F
6HR MIN TEMP:  66; 6HR MAX TEMP:  75; 6HR PCP:  0.78;

MARSHALL       FAIR      68  66  91 S3        29.76F
6HR MIN TEMP:  68; 6HR MAX TEMP:  75; 6HR PCP:  0.50;

ATHENS         FAIR      63  63 100 CALM      29.71F
PALESTINE      FAIR      67  66  96 CALM      29.74F
JACKSONVILLE   FAIR      70  65  86 SW5       29.76F
NACOGDOCHES    FAIR      70  66  88 CALM      29.77R
6HR MIN TEMP:  70; 6HR MAX TEMP:  75; 6HR PCP:  0.01;

LUFKIN         CLOUDY    76  72  87 E3        29.76F FOG
6HR MIN TEMP:  76; 6HR MAX TEMP:  80;

$$

SUPPLEMENTAL OBSERVATIONS (CENTRAL)

CITY           SKY/WX    TMP DP  RH WIND       PRES   REMARKS
LAKE TEXOMA      N/A    N/A N/A N/A S6          N/A
CADDO GRASSLND   N/A    N/A N/A N/A S7          N/A
PAT MAYSE LAKE   N/A    N/A N/A N/A SE10        N/A
GREENVILLE       N/A    N/A N/A N/A S6          N/A
CEDAR HILL       N/A     64  61  88 S3          N/A
ATHENS           N/A     66  63  88 S6          N/A
LAKE LIMESTONE   N/A     72  68  88 S1          N/A
MCGREGOR         N/A     66  63  88 SW3         N/A
TEMPLE           N/A     72  68  88 S7          N/A
$$

SUPPLEMENTAL OBSERVATIONS (WEST)

CITY           SKY/WX    TMP DP  RH WIND       PRES   REMARKS
MILLERS CREEK    N/A     63  46  55 W7          N/A


USA.gov is the U.S. government's official web portal to all federal, state and local government web resources and services.